Flag for United Kingdom Weather past 2 weeks in Brighton, England, United Kingdom

Now
57 °F

Sunny.


Feels Like: 55 °F
Forecast: 47 / 65 °F
Wind: 12 mph from Southwest

Location: Shoreham Airport

Current Time: Jun 3, 2015 at 9:02:33 PM

Latest Report: Jun 3, 2015 at 7:50 PM


Visibility: 10 mi

Pressure: 30.27 "Hg

Humidity: 77%

Dew point: 50 °F

Location of BrightonLocation

Historic Weather in Brighton — Graph

°F

Brighton temperature yesterday

Maximum temperature yesterday: 59 °F (at 3:50 PM)
Minimum temperature yesterday: 55 °F (at 7:50 AM)
Average temperature yesterday: 57 °F

Past Weeks' High & Low Weather Summary

 TemperatureHumidityPressure
High66 °F (May 26, 2:50 PM)100% (May 31, 8:50 AM)30.33 "Hg (May 31, 8:50 AM)
Low48 °F (May 20, 7:50 AM)42% (May 28, 1:20 PM)29.68 "Hg (Jun 2, 7:50 AM)
Average57 °F72%30.06 "Hg
* Reported May 19 7:20 PM — Jun 3 7:50 PM, Brighton, Weather by CustomWeather, © 2015

Note: Actual official high and low records may vary slightly from our data, if they occured in-between our weather recording intervals... More about our weather records

Advertising

Brighton weather history for previous 24 hours

 ConditionsComfort  
Time TempWeatherWind HumidityBarometerVisibility
7:50 PM
Wed, Jun 3
57 °FSunny.12 mph77%30.27 "Hg10 mi
7:20 PM59 °FSunny.12 mph72%30.27 "Hg10 mi
6:50 PM59 °FSunny.12 mph72%30.27 "Hg10 mi
6:20 PM59 °FSunny.13 mph72%30.27 "Hg10 mi
5:50 PM59 °FSunny.14 mph72%30.27 "Hg10 mi
5:20 PM59 °FSunny.16 mph72%30.27 "Hg10 mi
4:50 PM59 °FSunny.17 mph72%30.27 "Hg10 mi
4:20 PM59 °FPassing clouds.18 mph72%30.27 "HgN/A
3:50 PM59 °FPassing clouds.18 mph72%30.24 "HgN/A
3:20 PM59 °FPassing clouds.17 mph72%30.24 "HgN/A
2:50 PM59 °FPassing clouds.20 mph72%30.24 "HgN/A
2:20 PM57 °FPassing clouds.17 mph77%30.24 "HgN/A
1:50 PM59 °FScattered clouds.18 mph77%30.24 "HgN/A
1:20 PM59 °FScattered clouds.20 mph72%30.24 "HgN/A
12:50 PM59 °FScattered clouds.17 mph72%30.21 "HgN/A
12:20 PM59 °FScattered clouds.18 mph72%30.21 "HgN/A
11:50 AM61 °FScattered clouds.14 mph63%30.21 "HgN/A
11:20 AM57 °FScattered clouds.16 mph72%30.18 "HgN/A
10:50 AM57 °FScattered clouds.14 mph67%30.18 "HgN/A
10:20 AM59 °FScattered clouds.10 mph63%30.15 "HgN/A
9:50 AM59 °FPassing clouds.8 mph63%30.15 "HgN/A
9:20 AM57 °FPassing clouds.9 mph63%30.15 "HgN/A
8:50 AM59 °FPassing clouds.12 mph63%30.12 "HgN/A
8:20 AM57 °FPassing clouds.14 mph67%30.12 "HgN/A
7:50 AM57 °FPassing clouds.12 mph72%30.09 "HgN/A
Weather by CustomWeather, © 2015

See weather overviewHow to use our weather pages